Battle Creek, MI

3:18 PM EDT on March 29, 2017 (GMT -0400)
Kellogg

Weather History for KBTL - November, 2013

Change the Weather History Date:

Sunday, November 24, 2013

  Actual Average Record
Temperature  
Mean Temperature 19 °F 35 °F  
Max Temperature 24 °F 44 °F 61 °F (2001)
Min Temperature 13 °F 27 °F 12 °F (2005)
Degree Days  
Heating Degree Days 46 30  
Month to date heating degree days 603 589  
Since 1 July heating degree days 1173 1251  
Cooling Degree Days 0 0  
Month to date cooling degree days 0 0  
Year to date cooling degree days 689 578  
Moisture  
Dew Point 11 °F    
Average Humidity 68    
Maximum Humidity 80    
Minimum Humidity 56    
Precipitation  
Precipitation T in 0.09 in 0.88 in (2014)
Month to date precipitation 1.90 2.33  
Year to date precipitation 33.80 30.66  
Sea Level Pressure  
Sea Level Pressure 30.56 in    
Wind  
Wind Speed 8 mph (West)    
Max Wind Speed 14 mph    
Max Gust Speed 18 mph    
Visibility 8 miles    
Events Snow    
T = Trace of Precipitation, MM = Missing Value Source: NWS Daily Summary

Daily Weather History Graph

Daily Weather History Graph

Search for Another Location

Airport or City:

Trip Planner

Search our weather history database for the weather conditions in past years. The results will help you decide how hot, cold, wet, or windy it might be!

Date:

Astronomy

Nov. 24, 2013 Rise Set
Actual Time 7:42 AM EST 5:12 PM EST
Civil Twilight 7:11 AM EST 5:43 PM EST
Nautical Twilight 6:37 AM EST 6:17 PM EST
Astronomical Twilight 6:03 AM EST 6:51 PM EST
Moon 11:41 PM EST (11/24) 12:26 PM EST (11/24)
Length of Visible Light 10h 31m
Length of Day
9h 29m
Waning Gibbous, 61% of the Moon is Illuminated
Nov 24
Waning Gibbous
Nov 25
Last Quarter
Dec 2
New
Dec 9
First Quarter
Dec 17
Full

Hourly Weather History & Observations

Time (EST) Temp. Windchill Dew Point Humidity Pressure Visibility Wind Dir Wind Speed Gust Speed Precip Events Conditions
12:53 AM 16.0 °F 5.3 °F 7.0 °F 68% 30.60 in 10.0 mi NW 8.1 mph - N/A   Clear
1:53 AM 15.1 °F 6.4 °F 7.0 °F 70% 30.60 in 10.0 mi WNW 5.8 mph - N/A   Scattered Clouds
2:53 AM 15.1 °F 4.2 °F 6.1 °F 68% 30.60 in 10.0 mi NNW 8.1 mph - N/A   Clear
3:53 AM 12.9 °F 3.8 °F 6.1 °F 74% 30.61 in 10.0 mi WNW 5.8 mph - N/A   Clear
4:53 AM 15.1 °F 6.4 °F 8.1 °F 74% 30.60 in 10.0 mi West 5.8 mph - N/A   Mostly Cloudy
5:53 AM 16.0 °F 10.4 °F 8.1 °F 71% 30.61 in 10.0 mi WNW 3.5 mph - N/A   Overcast
6:53 AM 15.1 °F 9.4 °F 9.0 °F 77% 30.62 in 10.0 mi West 3.5 mph - N/A   Scattered Clouds
7:53 AM 17.1 °F 11.7 °F 12.0 °F 81% 30.63 in 10.0 mi WNW 3.5 mph - N/A   Mostly Cloudy
8:53 AM 18.0 °F 8.7 °F 12.9 °F 81% 30.65 in 10.0 mi West 6.9 mph - N/A   Overcast
9:53 AM 19.9 °F 11.1 °F 10.9 °F 68% 30.65 in 10.0 mi NNW 6.9 mph - N/A   Overcast
10:53 AM 21.0 °F 10.6 °F 10.0 °F 63% 30.66 in 10.0 mi NW 9.2 mph - N/A   Overcast
11:53 AM 21.9 °F 13.4 °F 12.0 °F 66% 30.63 in 10.0 mi WSW 6.9 mph - 0.00 in   Overcast
12:28 PM 23.0 °F 13.9 °F 12.2 °F 63% 30.57 in 6.0 mi WSW 8.1 mph - 0.00 in Snow Light Snow
12:36 PM 21.2 °F 10.9 °F 12.2 °F 68% 30.57 in 7.0 mi WSW 9.2 mph - 0.00 in Snow Light Snow
12:53 PM 21.9 °F 11.7 °F 12.9 °F 68% 30.61 in 9.0 mi West 9.2 mph - 0.00 in Snow Light Snow
1:03 PM 23.0 °F 13.9 °F 14.0 °F 68% 30.56 in 7.0 mi West 8.1 mph - 0.00 in Snow Light Snow
1:13 PM 21.2 °F 11.7 °F 12.2 °F 68% 30.55 in 4.0 mi West 8.1 mph - 0.00 in Snow Light Snow
1:53 PM 23.0 °F 13.1 °F 15.1 °F 72% 30.59 in 5.0 mi West 9.2 mph - 0.00 in Snow Light Snow
2:34 PM 21.2 °F 10.1 °F 15.8 °F 80% 30.52 in 1.8 mi WSW 10.4 mph - 0.00 in Snow Light Snow
2:43 PM 23.0 °F 13.1 °F 15.8 °F 74% 30.52 in 3.0 mi West 9.2 mph - 0.00 in Snow Light Snow
2:53 PM 23.0 °F 12.4 °F 15.1 °F 72% 30.57 in 7.0 mi West 10.4 mph - 0.00 in Snow Light Snow
3:14 PM 24.8 °F 15.3 °F 14.0 °F 64% 30.52 in 9.0 mi NW 9.2 mph - 0.00 in   Overcast
3:53 PM 23.0 °F 12.4 °F 14.0 °F 68% 30.58 in 5.0 mi WNW 10.4 mph - 0.00 in Snow Light Snow
4:21 PM 21.2 °F 10.9 °F 15.8 °F 80% 30.52 in 6.0 mi West 9.2 mph - 0.00 in Snow Light Snow
4:28 PM 21.2 °F 10.1 °F 15.8 °F 80% 30.52 in 9.0 mi West 10.4 mph - 0.00 in   Overcast
4:53 PM 21.9 °F 15.7 °F 14.0 °F 72% 30.56 in 10.0 mi WSW 4.6 mph - 0.00 in   Mostly Cloudy
5:53 PM 19.0 °F 10.0 °F 10.9 °F 71% 30.54 in 10.0 mi WSW 6.9 mph - N/A   Partly Cloudy
6:53 PM 19.0 °F 10.0 °F 10.0 °F 68% 30.53 in 10.0 mi SSW 6.9 mph - N/A   Clear
7:53 PM 19.0 °F 10.0 °F 10.0 °F 68% 30.52 in 10.0 mi SW 6.9 mph - N/A   Clear
8:53 PM 18.0 °F 7.7 °F 10.0 °F 71% 30.49 in 10.0 mi SSW 8.1 mph - N/A   Clear
9:53 PM 18.0 °F 6.1 °F 9.0 °F 68% 30.46 in 10.0 mi SSW 10.4 mph - N/A   Clear
10:53 PM 19.0 °F 6.8 °F 7.0 °F 59% 30.45 in 10.0 mi SSW 11.5 mph - N/A   Clear
11:53 PM 19.0 °F 6.1 °F 6.1 °F 57% 30.43 in 10.0 mi SW 12.7 mph - N/A   Clear